User: anonymous   Login
Location: Unspecified
(0.0000°N, 0.0000°E)
Time: 22:28:47
(UTC+00:00)
Language:

STARLINK-3631 - Orbit

View from above orbital plane
View from above orbital plane
View from above satellite
View from above satellite

Ground track
Ground track

The orbit is defined by the following mean orbital elements,

1 51790U          26145.34799073 +.00000000 +00000-0 +12176-3 0 00005
2 51790  53.2159   4.9878 0001656  98.1533 261.9647 15.08851690    00
Epoch (UTC): 25 May 2026 08:21:06
Eccentricity: 0.0001656
inclination: 53.2159°
perigee height: 539 km
apogee height: 541 km
right ascension of ascending node: 4.9878°
argument of perigee: 98.1533°
revolutions per day: 15.08851690
mean anomaly at epoch: 261.9647°

The dashed part of the orbit path shows where the satellite is in the earth's shadow,  

DLR